Time,TemperatureF,DewpointF,PressureIn,WindDirection,WindDirectionDegrees,WindSpeedMPH,WindSpeedGustMPH,Humidity,HourlyPrecipIn,Conditions,Clouds,dailyrainin,SoftwareType,DateUTC
2013-08-06 00:14:00,53.3,52.0,29.98,SSW,208,2.0,5.0,95,0.00,,,0.00,weatherlink.com 1.10,2013-08-06 07:14:00,
2013-08-06 00:29:00,53.2,52.0,29.98,SW,217,3.0,5.0,95,0.00,,,0.00,weatherlink.com 1.10,2013-08-06 07:29:00,
2013-08-06 00:44:00,53.1,52.0,29.98,SW,231,3.0,5.0,95,0.00,,,0.00,weatherlink.com 1.10,2013-08-06 07:44:00,
2013-08-06 00:59:00,52.9,52.0,29.98,SW,235,2.0,5.0,96,0.00,,,0.00,weatherlink.com 1.10,2013-08-06 07:59:00,
2013-08-06 01:14:00,52.9,52.0,29.98,WSW,243,3.0,6.0,96,0.00,,,0.00,weatherlink.com 1.10,2013-08-06 08:14:00,
2013-08-06 01:29:00,52.8,52.0,29.98,WSW,257,0.0,5.0,96,0.00,,,0.00,weatherlink.com 1.10,2013-08-06 08:29:00,
2013-08-06 01:44:00,53.0,52.0,29.98,SW,226,0.0,3.0,97,0.00,,,0.00,weatherlink.com 1.10,2013-08-06 08:44:00,
2013-08-06 01:59:00,53.1,52.0,29.98,SSW,193,0.0,5.0,96,0.00,,,0.00,weatherlink.com 1.10,2013-08-06 08:59:00,
2013-08-06 02:14:00,53.1,52.0,29.98,East,80,0.0,4.0,96,0.00,,,0.00,weatherlink.com 1.10,2013-08-06 09:14:00,
2013-08-06 02:29:00,53.0,52.0,29.97,South,188,0.0,4.0,97,0.00,,,0.00,weatherlink.com 1.10,2013-08-06 09:29:00,
2013-08-06 02:44:00,52.9,52.0,29.98,SSE,150,0.0,5.0,97,0.00,,,0.00,weatherlink.com 1.10,2013-08-06 09:44:00,
2013-08-06 02:59:00,52.9,52.0,29.98,SSW,211,3.0,7.0,97,0.00,,,0.00,weatherlink.com 1.10,2013-08-06 09:59:00,
2013-08-06 03:14:00,52.6,52.0,29.97,WSW,238,0.0,5.0,97,0.00,,,0.00,weatherlink.com 1.10,2013-08-06 10:14:00,
2013-08-06 03:29:00,52.2,51.0,29.98,SSW,204,5.0,7.0,97,0.00,,,0.00,weatherlink.com 1.10,2013-08-06 10:29:00,
2013-08-06 03:44:00,51.8,51.0,29.98,SW,228,0.0,6.0,97,0.00,,,0.00,weatherlink.com 1.10,2013-08-06 10:44:00,
2013-08-06 03:59:00,51.9,51.0,29.98,SSW,200,0.0,4.0,97,0.00,,,0.00,weatherlink.com 1.10,2013-08-06 10:59:00,
2013-08-06 04:15:00,51.9,51.0,29.98,SW,226,5.0,5.0,97,0.00,,,0.00,weatherlink.com 1.10,2013-08-06 11:15:00,
2013-08-06 04:30:00,51.6,51.0,29.98,SSW,201,0.0,4.0,97,0.00,,,0.00,weatherlink.com 1.10,2013-08-06 11:30:00,
2013-08-06 04:45:00,51.5,51.0,29.98,South,186,0.0,0.0,97,0.00,,,0.00,weatherlink.com 1.10,2013-08-06 11:45:00,
2013-08-06 05:00:00,51.5,51.0,29.98,SE,141,0.0,0.0,97,0.00,,,0.00,weatherlink.com 1.10,2013-08-06 12:00:00,
2013-08-06 05:15:00,51.4,51.0,29.98,SW,231,0.0,2.0,97,0.00,,,0.00,weatherlink.com 1.10,2013-08-06 12:15:00,
2013-08-06 05:30:00,51.5,51.0,29.98,SE,145,0.0,3.0,97,0.00,,,0.00,weatherlink.com 1.10,2013-08-06 12:30:00,
2013-08-06 05:45:00,51.5,51.0,29.98,SSW,212,0.0,0.0,97,0.00,,,0.00,weatherlink.com 1.10,2013-08-06 12:45:00,
2013-08-06 06:00:00,51.5,51.0,29.98,SSE,157,0.0,0.0,97,0.00,,,0.00,weatherlink.com 1.10,2013-08-06 13:00:00,
2013-08-06 06:15:00,51.6,51.0,29.99,South,169,0.0,0.0,97,0.00,,,0.00,weatherlink.com 1.10,2013-08-06 13:15:00,
2013-08-06 06:30:00,51.6,51.0,30.00,SSW,193,0.0,0.0,97,0.00,,,0.00,weatherlink.com 1.10,2013-08-06 13:30:00,
2013-08-06 06:45:00,51.5,51.0,30.00,SW,219,0.0,0.0,97,0.00,,,0.00,weatherlink.com 1.10,2013-08-06 13:45:00,
2013-08-06 07:00:00,51.5,51.0,30.00,ESE,123,0.0,0.0,97,0.00,,,0.00,weatherlink.com 1.10,2013-08-06 14:00:00,
2013-08-06 07:15:00,51.7,51.0,30.00,SSW,208,0.0,2.0,97,0.00,,,0.00,weatherlink.com 1.10,2013-08-06 14:15:00,
2013-08-06 07:30:00,51.7,51.0,30.00,South,184,0.0,0.0,97,0.00,,,0.00,weatherlink.com 1.10,2013-08-06 14:30:00,
2013-08-06 07:45:00,51.9,51.0,30.01,SE,134,0.0,0.0,97,0.00,,,0.00,weatherlink.com 1.10,2013-08-06 14:45:00,
2013-08-06 08:00:00,52.0,51.0,30.01,WSW,257,0.0,2.0,97,0.00,,,0.00,weatherlink.com 1.10,2013-08-06 15:00:00,
2013-08-06 08:15:00,52.2,51.0,30.01,West,263,0.0,1.0,97,0.00,,,0.00,weatherlink.com 1.10,2013-08-06 15:15:00,
2013-08-06 08:30:00,52.2,51.0,30.02,SSW,211,0.0,3.0,97,0.00,,,0.00,weatherlink.com 1.10,2013-08-06 15:30:00,
2013-08-06 08:45:00,52.3,52.0,30.02,SW,232,0.0,4.0,97,0.00,,,0.00,weatherlink.com 1.10,2013-08-06 15:45:00,
2013-08-06 09:00:00,52.6,52.0,30.02,SSW,200,0.0,4.0,97,0.00,,,0.00,weatherlink.com 1.10,2013-08-06 16:00:00,
2013-08-06 09:15:00,53.1,52.0,30.02,WSW,252,0.0,0.0,96,0.00,,,0.00,weatherlink.com 1.10,2013-08-06 16:15:00,
2013-08-06 09:30:00,54.0,53.0,30.02,West,259,0.0,4.0,95,0.00,,,0.00,weatherlink.com 1.10,2013-08-06 16:30:00,
2013-08-06 09:45:00,54.9,53.0,30.03,WNW,291,0.0,0.0,93,0.00,,,0.00,weatherlink.com 1.10,2013-08-06 16:45:00,
2013-08-06 10:00:00,56.0,53.0,30.03,WSW,238,0.0,0.0,89,0.00,,,0.00,weatherlink.com 1.10,2013-08-06 17:00:00,
2013-08-06 10:15:00,57.0,53.0,30.03,West,269,3.0,3.0,87,0.00,,,0.00,weatherlink.com 1.10,2013-08-06 17:15:00,
2013-08-06 10:30:00,57.9,53.0,30.03,NNE,15,0.0,1.0,84,0.00,,,0.00,weatherlink.com 1.10,2013-08-06 17:30:00,
2013-08-06 10:45:00,59.1,54.0,30.03,NNW,342,0.0,4.0,82,0.00,,,0.00,weatherlink.com 1.10,2013-08-06 17:45:00,
2013-08-06 11:00:00,60.2,54.0,30.03,NNE,22,5.0,5.0,80,0.00,,,0.00,weatherlink.com 1.10,2013-08-06 18:00:00,
2013-08-06 11:15:00,62.2,55.0,30.02,North,3,0.0,6.0,77,0.00,,,0.00,weatherlink.com 1.10,2013-08-06 18:15:00,
2013-08-06 11:31:00,64.1,56.0,30.02,WNW,287,3.0,6.0,74,0.00,,,0.00,weatherlink.com 1.10,2013-08-06 18:31:00,
2013-08-06 11:46:00,65.8,56.0,30.02,SW,228,2.0,5.0,70,0.00,,,0.00,weatherlink.com 1.10,2013-08-06 18:46:00,
2013-08-06 12:01:00,67.1,56.0,30.01,NW,321,1.0,6.0,68,0.00,,,0.00,weatherlink.com 1.10,2013-08-06 19:01:00,
2013-08-06 12:16:00,68.9,57.0,30.01,NW,321,2.0,7.0,65,0.00,,,0.00,weatherlink.com 1.10,2013-08-06 19:16:00,
2013-08-06 12:31:00,70.2,57.0,30.01,West,276,2.0,7.0,64,0.00,,,0.00,weatherlink.com 1.10,2013-08-06 19:31:00,
2013-08-06 12:46:00,71.0,57.0,30.00,WSW,255,4.0,10.0,61,0.00,,,0.00,weatherlink.com 1.10,2013-08-06 19:46:00,
2013-08-06 13:01:00,71.5,56.0,30.00,South,190,4.0,11.0,59,0.00,,,0.00,weatherlink.com 1.10,2013-08-06 20:01:00,
2013-08-06 13:16:00,71.9,57.0,30.00,SSE,149,4.0,8.0,60,0.00,,,0.00,weatherlink.com 1.10,2013-08-06 20:16:00,
2013-08-06 13:31:00,70.4,57.0,30.00,South,180,3.0,10.0,62,0.00,,,0.00,weatherlink.com 1.10,2013-08-06 20:31:00,
2013-08-06 13:46:00,69.6,56.0,30.00,SSW,203,1.0,8.0,63,0.00,,,0.00,weatherlink.com 1.10,2013-08-06 20:46:00,
2013-08-06 14:01:00,70.9,57.0,30.00,West,280,2.0,9.0,61,0.00,,,0.00,weatherlink.com 1.10,2013-08-06 21:01:00,
2013-08-06 14:16:00,71.6,56.0,29.99,SW,214,9.0,14.0,59,0.00,,,0.00,weatherlink.com 1.10,2013-08-06 21:16:00,
2013-08-06 14:31:00,70.5,57.0,29.99,SSW,196,6.0,13.0,62,0.00,,,0.00,weatherlink.com 1.10,2013-08-06 21:31:00,
2013-08-06 14:46:00,70.6,56.0,29.99,NNW,333,2.0,12.0,61,0.00,,,0.00,weatherlink.com 1.10,2013-08-06 21:46:00,
2013-08-06 15:01:00,70.3,57.0,29.99,WSW,252,5.0,12.0,62,0.00,,,0.00,weatherlink.com 1.10,2013-08-06 22:01:00,
2013-08-06 15:16:00,69.5,56.0,29.99,SSW,204,5.0,13.0,63,0.00,,,0.00,weatherlink.com 1.10,2013-08-06 22:16:00,
2013-08-06 15:31:00,68.8,56.0,29.99,NW,326,3.0,11.0,65,0.00,,,0.00,weatherlink.com 1.10,2013-08-06 22:31:00,
2013-08-06 15:46:00,68.3,56.0,29.99,WNW,287,5.0,13.0,66,0.00,,,0.00,weatherlink.com 1.10,2013-08-06 22:46:00,
2013-08-06 16:01:00,69.3,57.0,29.99,South,173,3.0,13.0,64,0.00,,,0.00,weatherlink.com 1.10,2013-08-06 23:01:00,
2013-08-06 16:16:00,66.6,56.0,29.99,South,181,3.0,13.0,68,0.00,,,0.00,weatherlink.com 1.10,2013-08-06 23:16:00,
2013-08-06 16:31:00,66.8,56.0,29.99,South,173,5.0,14.0,69,0.00,,,0.00,weatherlink.com 1.10,2013-08-06 23:31:00,
2013-08-06 16:46:00,66.9,57.0,29.98,SW,229,9.0,14.0,70,0.00,,,0.00,weatherlink.com 1.10,2013-08-06 23:46:00,
2013-08-06 17:01:00,68.0,57.0,29.98,SSW,201,3.0,14.0,67,0.00,,,0.00,weatherlink.com 1.10,2013-08-07 00:01:00,
2013-08-06 17:16:00,66.3,56.0,29.99,SSW,194,12.0,15.0,69,0.00,,,0.00,weatherlink.com 1.10,2013-08-07 00:16:00,
2013-08-06 17:31:00,65.5,56.0,29.99,South,172,6.0,12.0,72,0.00,,,0.00,weatherlink.com 1.10,2013-08-07 00:31:00,
2013-08-06 17:46:00,65.5,56.0,29.99,NW,304,6.0,13.0,72,0.00,,,0.00,weatherlink.com 1.10,2013-08-07 00:46:00,
2013-08-06 18:01:00,63.5,55.0,29.99,WSW,238,6.0,10.0,75,0.00,,,0.00,weatherlink.com 1.10,2013-08-07 01:01:00,
2013-08-06 18:16:00,63.7,56.0,30.00,West,269,5.0,10.0,75,0.00,,,0.00,weatherlink.com 1.10,2013-08-07 01:16:00,
2013-08-06 18:31:00,63.4,56.0,30.00,SW,219,8.0,10.0,76,0.00,,,0.00,weatherlink.com 1.10,2013-08-07 01:31:00,
2013-08-06 18:46:00,62.8,55.0,30.00,South,190,5.0,9.0,76,0.00,,,0.00,weatherlink.com 1.10,2013-08-07 01:46:00,
2013-08-06 19:01:00,62.0,55.0,29.99,West,267,3.0,9.0,79,0.00,,,0.00,weatherlink.com 1.10,2013-08-07 02:01:00,
2013-08-06 19:16:00,61.4,55.0,30.00,SW,231,4.0,13.0,79,0.00,,,0.00,weatherlink.com 1.10,2013-08-07 02:16:00,
2013-08-06 19:31:00,60.5,55.0,30.00,WNW,295,3.0,9.0,82,0.00,,,0.00,weatherlink.com 1.10,2013-08-07 02:31:00,
2013-08-06 19:46:00,60.1,55.0,30.00,SW,236,4.0,8.0,83,0.00,,,0.00,weatherlink.com 1.10,2013-08-07 02:46:00,
2013-08-06 20:01:00,60.0,55.0,30.00,West,262,1.0,7.0,82,0.00,,,0.00,weatherlink.com 1.10,2013-08-07 03:01:00,
2013-08-06 20:16:00,59.3,54.0,30.01,WSW,239,2.0,8.0,83,0.00,,,0.00,weatherlink.com 1.10,2013-08-07 03:16:00,
2013-08-06 20:31:00,58.7,54.0,30.01,SW,217,4.0,6.0,85,0.00,,,0.00,weatherlink.com 1.10,2013-08-07 03:31:00,
2013-08-06 20:46:00,58.5,54.0,30.01,SW,226,4.0,5.0,86,0.00,,,0.00,weatherlink.com 1.10,2013-08-07 03:46:00,
2013-08-06 21:01:00,58.1,54.0,30.02,WSW,256,3.0,8.0,86,0.00,,,0.00,weatherlink.com 1.10,2013-08-07 04:01:00,
2013-08-06 21:16:00,57.9,54.0,30.02,WSW,251,3.0,6.0,87,0.00,,,0.00,weatherlink.com 1.10,2013-08-07 04:16:00,
2013-08-06 21:31:00,58.0,54.0,30.03,SW,219,3.0,5.0,87,0.00,,,0.00,weatherlink.com 1.10,2013-08-07 04:31:00,
2013-08-06 21:46:00,57.9,54.0,30.03,SW,228,2.0,6.0,88,0.00,,,0.00,weatherlink.com 1.10,2013-08-07 04:46:00,
2013-08-06 22:01:00,57.8,54.0,30.03,WNW,294,2.0,5.0,88,0.00,,,0.00,weatherlink.com 1.10,2013-08-07 05:01:00,
2013-08-06 22:16:00,57.9,54.0,30.04,SSW,208,2.0,5.0,88,0.00,,,0.00,weatherlink.com 1.10,2013-08-07 05:16:00,
2013-08-06 22:31:00,57.8,54.0,30.04,WSW,243,3.0,6.0,88,0.00,,,0.00,weatherlink.com 1.10,2013-08-07 05:31:00,
2013-08-06 22:46:00,57.5,54.0,30.04,WSW,248,3.0,6.0,89,0.00,,,0.00,weatherlink.com 1.10,2013-08-07 05:46:00,
2013-08-06 23:02:00,57.4,54.0,30.04,West,266,2.0,6.0,89,0.00,,,0.00,weatherlink.com 1.10,2013-08-07 06:02:00,
2013-08-06 23:17:00,57.4,54.0,30.04,WSW,238,4.0,6.0,89,0.00,,,0.00,weatherlink.com 1.10,2013-08-07 06:17:00,
2013-08-06 23:32:00,57.2,54.0,30.04,West,264,0.0,6.0,90,0.00,,,0.00,weatherlink.com 1.10,2013-08-07 06:32:00,
2013-08-06 23:47:00,57.2,54.0,30.04,SW,217,2.0,4.0,90,0.00,,,0.00,weatherlink.com 1.10,2013-08-07 06:47:00,